Yakima, WA
on Wednesday, December 12, 2012

Wednesday
Previous Day Next Day
Daily Summary
 ActualAverageRecord
Temperature
Mean Temperature °F 28°F  
Max Temperature 40°F 36°F 56°F (1956)
Min Temperature 26°F 21°F -8°F (1972)
Degree Days
Heating Degree Days 32 37  
Month to date heating degree days 302 421  
Since 1 July heating degree days 1540 1954  
Cooling Degree Days 0 0  
Month to date cooling degree days 0 0  
Year to date cooling degree days 667 472  
Moisture
Dew Point 28°F   
Average Humidity 86    
Maximum Humidity 92    
Minimum Humidity 79    
Precipitation
Precipitation T in 0.05 in 0.77 in (1995)
Month to date precipitation 0.74 0.58  
Year to date precipitation 7.93 7.30  
Snow
Snow 0.00 in 0.30 in 2.80 in (1972)
Month to date snowfall T 3.5  
Year to date snowfall 22.2 15.7  
Since 1 July snowfall 0.7 7.1  
Snow Depth 0.00 in   
Wind
Wind Speed 2 mph   
Max Wind Speed 9 mph   
Max Gust Speed 21 mph   
Visibility 8 miles   
Events     

Key: T is trace of precipitation, MM is missing value
Source: NWS Daily Summary
Time(PST)TemperatureDew PointHumidity Pressure Visibility Wind DirectionWind SpeedGust SpeedPrecipitationEvents Conditions
12:53 AM 30.0°F 27.0°F 88% 29.62 in 9.0 miles WNW 4.6 mph - N/A   Clear
1:53 AM 30.0°F 26.1°F 85% 29.62 in 10.0 miles West 6.9 mph - N/A   Clear
2:53 AM 30.0°F 27.0°F 88% 29.64 in 9.0 miles Calm Calm - N/A   Overcast
3:53 AM 28.9°F 25.0°F 85% 29.65 in 9.0 miles West 4.6 mph - N/A   Clear
4:53 AM 28.9°F 26.1°F 89% 29.67 in 10.0 miles Calm Calm - N/A   Overcast
5:53 AM 27.0°F 24.1°F 89% 29.68 in 7.0 miles Calm Calm - N/A   Scattered Clouds
6:53 AM 28.9°F 25.0°F 85% 29.71 in 9.0 miles Calm Calm - 0.00 in   Overcast
7:53 AM 28.9°F 25.0°F 85% 29.74 in 8.0 miles WNW 3.5 mph - N/A   Mostly Cloudy
8:53 AM 32.0°F 28.0°F 85% 29.76 in 7.0 miles WNW 3.5 mph - N/A   Scattered Clouds
9:53 AM 33.1°F 30.0°F 89% 29.80 in 8.0 miles Calm Calm - N/A   Mostly Cloudy
10:53 AM 36.0°F 30.9°F 82% 29.81 in 9.0 miles Calm Calm - N/A   Mostly Cloudy
11:53 AM 36.0°F 32.0°F 86% 29.81 in 6.0 miles Calm Calm - N/A   Mostly Cloudy
12:53 PM 37.0°F 32.0°F 82% 29.82 in 7.0 miles Calm Calm - N/A   Scattered Clouds
1:53 PM 39.0°F 33.1°F 79% 29.83 in 8.0 miles Calm Calm - N/A   Mostly Cloudy
2:53 PM 39.9°F 33.1°F 77% 29.85 in 8.0 miles Calm Calm - N/A   Overcast
3:53 PM 37.9°F 32.0°F 79% 29.88 in 8.0 miles Calm Calm - N/A   Mostly Cloudy
4:53 PM 35.1°F 30.9°F 85% 29.90 in 8.0 miles Calm Calm - N/A   Mostly Cloudy
5:53 PM 33.1°F 28.9°F 85% 29.93 in 6.0 miles Calm Calm - N/A   Clear
6:53 PM 30.9°F 28.0°F 89% 29.94 in 5.0 miles Calm Calm - N/A   Scattered Clouds
7:53 PM 28.0°F 25.0°F 88% 29.96 in 6.0 miles West 6.9 mph - N/A   Clear
8:53 PM 28.9°F 26.1°F 89% 29.98 in 6.0 miles SW 4.6 mph - N/A   Clear
9:53 PM 28.9°F 26.1°F 89% 30.01 in 6.0 miles West 6.9 mph - N/A   Overcast
10:53 PM 30.0°F 27.0°F 88% 30.02 in 8.0 miles WNW 3.5 mph - N/A   Mostly Cloudy
11:53 PM 27.0°F 24.1°F 89% 30.04 in 9.0 miles Calm Calm - N/A   Clear
Moon Phase
Dec. 12 Dec. 13 Dec. 20 Dec. 28 Jan. 04
Sunrise:07:37 AM (PST) Moon Rise:06:46 AM (PST)12/12
Sunset:04:14 PM (PST) Moon Set:03:58 PM (PST)12/12

Copyright © 2014 The Weather Underground, Inc.